Fryeburg, ME

7:24 PM EDT on April 28, 2017 (GMT -0400)
Eastern Slopes Regional

Weather History for KIZG - July, 2012

Change the Weather History Date:

Sunday, July 22, 2012

  Actual Average Record
Temperature  
Mean Temperature 74 °F -  
Max Temperature 90 °F 78 °F 100 °F (2011)
Min Temperature 60 °F 53 °F 46 °F (1997)
Cooling Degree Days 9    
Growing Degree Days 24 (Base 50)    
Moisture  
Dew Point 57 °F    
Average Humidity 59    
Maximum Humidity 84    
Minimum Humidity 35    
Precipitation  
Precipitation 0.00 in - - ()
Sea Level Pressure  
Sea Level Pressure 30.06 in    
Wind  
Wind Speed 4 mph (SW)    
Max Wind Speed 9 mph    
Max Gust Speed 17 mph    
Visibility 10 miles    
Events      
Averages and records for this station are not official NWS values.
T = Trace of Precipitation, MM = Missing Value Source: NWS Daily Summary

Daily Weather History Graph

Daily Weather History Graph

Search for Another Location

Airport or City:

Trip Planner

Search our weather history database for the weather conditions in past years. The results will help you decide how hot, cold, wet, or windy it might be!

Date:

Astronomy

Jul. 22, 2012 Rise Set
Actual Time 5:21 AM EDT 8:17 PM EDT
Civil Twilight 4:47 AM EDT 8:51 PM EDT
Nautical Twilight 4:04 AM EDT 9:35 PM EDT
Astronomical Twilight 3:13 AM EDT 10:26 PM EDT
Moon 9:14 AM EDT (7/22) 9:47 PM EDT (7/22)
Length of Visible Light 16h 04m
Length of Day
14h 56m
Waxing Crescent, 13% of the Moon is Illuminated
Jul 22
Waxing Crescent
Jul 26
First Quarter
Aug 1
Full
Aug 9
Last Quarter
Aug 17
New

Hourly Weather History & Observations

Time (EDT) Temp. Heat Index Dew Point Humidity Pressure Visibility Wind Dir Wind Speed Gust Speed Precip Events Conditions
12:54 AM 63.0 °F - 54.0 °F 72% 30.10 in 10.0 mi South 4.6 mph - N/A   Overcast
1:54 AM 60.1 °F - 54.0 °F 80% 30.10 in 10.0 mi SW 4.6 mph - N/A   Mostly Cloudy
2:54 AM 64.0 °F - 53.1 °F 67% 30.08 in 10.0 mi Calm Calm - N/A   Scattered Clouds
3:54 AM 60.1 °F - 55.0 °F 83% 30.08 in 10.0 mi Calm Calm - N/A   Mostly Cloudy
4:54 AM 61.0 °F - 54.0 °F 78% 30.08 in 10.0 mi Calm Calm - N/A   Mostly Cloudy
5:54 AM 61.0 °F - 55.9 °F 83% 30.09 in 10.0 mi Calm Calm - N/A   Clear
6:54 AM 64.0 °F - 55.9 °F 75% 30.09 in 10.0 mi Calm Calm - N/A   Mostly Cloudy
7:54 AM 68.0 °F - 57.0 °F 68% 30.09 in 10.0 mi Variable 3.5 mph - N/A   Scattered Clouds
8:54 AM 72.0 °F - 55.9 °F 57% 30.10 in 10.0 mi Variable 3.5 mph - N/A   Overcast
11:54 AM 87.1 °F 86.1 °F 57.9 °F 37% 30.07 in 10.0 mi Variable 3.5 mph - N/A   Partly Cloudy
12:54 PM 86.0 °F 84.7 °F 55.9 °F 36% 30.06 in 10.0 mi WSW 4.6 mph 16.1 mph N/A   Partly Cloudy
1:54 PM 88.0 °F 86.7 °F 57.0 °F 35% 30.04 in 10.0 mi WSW 9.2 mph - N/A   Scattered Clouds
2:54 PM 87.1 °F 85.9 °F 57.0 °F 36% 30.04 in 10.0 mi SW 8.1 mph - N/A   Mostly Cloudy
3:54 PM 88.0 °F 86.9 °F 57.9 °F 36% 30.04 in 10.0 mi WSW 5.8 mph 17.3 mph N/A   Scattered Clouds
4:54 PM 87.1 °F 85.9 °F 57.0 °F 36% 30.02 in 10.0 mi Variable 6.9 mph - N/A   Mostly Cloudy
5:54 PM 84.9 °F 84.2 °F 57.9 °F 40% 30.02 in 10.0 mi SSW 8.1 mph - N/A   Mostly Cloudy
6:54 PM 84.0 °F 83.8 °F 59.0 °F 43% 30.01 in 10.0 mi SSW 6.9 mph - N/A   Mostly Cloudy
7:54 PM 80.1 °F 80.9 °F 60.1 °F 50% 30.02 in 10.0 mi SSW 3.5 mph - N/A   Clear
8:54 PM 75.9 °F - 61.0 °F 60% 30.04 in 10.0 mi South 5.8 mph - N/A   Clear
9:54 PM 73.0 °F - 61.0 °F 66% 30.05 in 10.0 mi Variable 3.5 mph - N/A   Clear
10:54 PM 71.1 °F - 61.0 °F 70% 30.04 in 10.0 mi SSW 4.6 mph - N/A   Partly Cloudy
11:54 PM 66.0 °F - 61.0 °F 84% 30.04 in 10.0 mi Calm Calm - N/A   Clear